Location: Antichan
(42.9728°N, 0.6667°E)
Time: 18:15:29
(UTC+00:00)

H-2A R/B - Pass Details

Date: 15 August 2020
Orbit: 733 x 837 km, 98.2° (Epoch: 18 September)

Event Time Altitude Azimuth Distance (km) Brightness Sun altitude
Rises 20:11:44 0° 200° (SSW) 3,249 5.1 -12.7°
Reaches altitude 10° 20:14:31 10° 214° (SW) 2,309 4.5 -13.2°
Maximum altitude 20:18:30 23° 266° (W) 1,580 4.3 -13.8°
Drops below altitude 10° 20:22:26 10° 318° (NW) 2,276 5.8 -14.4°
Sets 20:25:11 0° 333° (NNW) 3,193 6.4 -14.8°
